Time,TemperatureF,DewpointF,PressureIn,WindDirection,WindDirectionDegrees,WindSpeedMPH,WindSpeedGustMPH,Humidity,HourlyPrecipIn,Conditions,Clouds,dailyrainin,SoftwareType,DateUTC
2013-04-28 00:01:00,62.2,41.8,30.12,ENE,57,0.0,0.0,47,0.00,,---,0.00,VWS V14.01,2013-04-28 04:01:00,
2013-04-28 00:06:00,62.2,41.8,30.12,ENE,57,0.0,0.0,47,0.00,,---,0.00,VWS V14.01,2013-04-28 04:06:00,
2013-04-28 00:11:00,62.1,42.2,30.12,ENE,57,0.0,0.0,48,0.00,,---,0.00,VWS V14.01,2013-04-28 04:11:00,
2013-04-28 00:16:00,62.1,42.2,30.12,ENE,57,0.0,0.0,48,0.00,,---,0.00,VWS V14.01,2013-04-28 04:16:00,
2013-04-28 00:21:00,61.9,42.5,30.12,ENE,57,0.0,0.0,49,0.00,,---,0.00,VWS V14.01,2013-04-28 04:21:00,
2013-04-28 00:26:00,61.9,42.5,30.12,ENE,57,0.0,0.0,49,0.00,,---,0.00,VWS V14.01,2013-04-28 04:26:00,
2013-04-28 00:31:00,61.9,42.5,30.12,ENE,57,0.0,0.0,49,0.00,,---,0.00,VWS V14.01,2013-04-28 04:31:00,
2013-04-28 00:36:00,61.7,42.4,30.12,ENE,57,0.0,0.0,49,0.00,,---,0.00,VWS V14.01,2013-04-28 04:36:00,
2013-04-28 00:41:00,61.7,42.9,30.12,ENE,57,0.0,0.0,50,0.00,,---,0.00,VWS V14.01,2013-04-28 04:41:00,
2013-04-28 00:46:00,61.5,42.7,30.12,ENE,57,0.0,0.0,50,0.00,,---,0.00,VWS V14.01,2013-04-28 04:46:00,
2013-04-28 00:51:00,61.5,43.2,30.12,ENE,57,0.0,0.0,51,0.00,,---,0.00,VWS V14.01,2013-04-28 04:51:00,
2013-04-28 00:56:00,61.5,43.2,30.12,ENE,57,0.0,0.0,51,0.00,,---,0.00,VWS V14.01,2013-04-28 04:56:00,
2013-04-28 01:01:00,61.5,43.8,30.12,ENE,57,0.0,0.0,52,0.00,,---,0.00,VWS V14.01,2013-04-28 05:01:00,
2013-04-28 01:06:00,61.3,44.1,30.12,ENE,57,0.0,0.0,53,0.00,,---,0.00,VWS V14.01,2013-04-28 05:06:00,
2013-04-28 01:11:00,61.3,44.1,30.12,ENE,57,0.0,0.0,53,0.00,,---,0.00,VWS V14.01,2013-04-28 05:11:00,
2013-04-28 01:16:00,61.3,44.6,30.12,ENE,57,0.0,0.0,54,0.00,,---,0.00,VWS V14.01,2013-04-28 05:16:00,
2013-04-28 01:21:00,61.2,44.4,30.12,ENE,57,0.0,0.0,54,0.00,,---,0.00,VWS V14.01,2013-04-28 05:21:00,
2013-04-28 01:26:00,61.2,44.4,30.12,ENE,57,0.0,0.0,54,0.00,,---,0.00,VWS V14.01,2013-04-28 05:26:00,
2013-04-28 01:31:00,61.2,44.4,30.09,ENE,57,0.0,0.0,54,0.00,,---,0.00,VWS V14.01,2013-04-28 05:31:00,
2013-04-28 01:36:00,61.0,44.2,30.09,ENE,57,0.0,0.0,54,0.00,,---,0.00,VWS V14.01,2013-04-28 05:36:00,
2013-04-28 01:41:00,61.0,44.2,30.09,ENE,57,0.0,0.0,54,0.00,,---,0.00,VWS V14.01,2013-04-28 05:41:00,
2013-04-28 01:46:00,60.8,44.1,30.09,ENE,57,0.0,0.0,54,0.00,,---,0.00,VWS V14.01,2013-04-28 05:46:00,
2013-04-28 01:51:00,60.6,44.4,30.09,ENE,57,0.0,0.0,55,0.00,,---,0.00,VWS V14.01,2013-04-28 05:51:00,
2013-04-28 01:56:00,60.6,44.4,30.09,ENE,57,0.0,0.0,55,0.00,,---,0.00,VWS V14.01,2013-04-28 05:56:00,
2013-04-28 02:01:00,60.6,44.4,30.09,ENE,57,0.0,0.0,55,0.00,,---,0.00,VWS V14.01,2013-04-28 06:01:00,
2013-04-28 02:06:00,60.4,44.2,30.09,ENE,57,0.0,0.0,55,0.00,,---,0.00,VWS V14.01,2013-04-28 06:06:00,
2013-04-28 02:11:00,60.4,44.2,30.09,ENE,57,0.0,0.0,55,0.00,,---,0.00,VWS V14.01,2013-04-28 06:11:00,
2013-04-28 02:16:00,60.3,44.0,30.09,ENE,57,0.0,0.0,55,0.00,,---,0.00,VWS V14.01,2013-04-28 06:16:00,
2013-04-28 02:21:00,60.3,44.5,30.09,ENE,57,0.0,0.0,56,0.00,,---,0.00,VWS V14.01,2013-04-28 06:21:00,
2013-04-28 02:26:00,60.1,44.3,30.09,ENE,57,0.0,0.0,56,0.00,,---,0.00,VWS V14.01,2013-04-28 06:26:00,
2013-04-28 02:31:00,60.1,44.3,30.09,ENE,57,0.0,0.0,56,0.00,,---,0.00,VWS V14.01,2013-04-28 06:31:00,
2013-04-28 02:36:00,59.9,44.2,30.09,ENE,57,0.0,0.0,56,0.00,,---,0.00,VWS V14.01,2013-04-28 06:36:00,
2013-04-28 02:41:00,59.7,44.0,30.09,ENE,57,0.0,0.0,56,0.00,,---,0.00,VWS V14.01,2013-04-28 06:41:00,
2013-04-28 02:46:00,59.7,44.0,30.09,ENE,57,0.0,0.0,56,0.00,,---,0.00,VWS V14.01,2013-04-28 06:46:00,
2013-04-28 02:51:00,59.7,44.0,30.09,ENE,57,0.0,0.0,56,0.00,,---,0.00,VWS V14.01,2013-04-28 06:51:00,
2013-04-28 02:56:00,59.5,43.8,30.09,ENE,57,0.0,0.0,56,0.00,,---,0.00,VWS V14.01,2013-04-28 06:56:00,
2013-04-28 03:01:00,59.5,43.8,30.06,ENE,57,0.0,0.0,56,0.00,,---,0.00,VWS V14.01,2013-04-28 07:01:00,
2013-04-28 03:06:00,59.4,44.1,30.06,ENE,57,0.0,0.0,57,0.00,,---,0.00,VWS V14.01,2013-04-28 07:06:00,
2013-04-28 03:12:00,59.4,44.1,30.06,ENE,57,0.0,0.0,57,0.00,,---,0.00,VWS V14.01,2013-04-28 07:12:00,
2013-04-28 03:17:00,59.2,44.0,30.06,ENE,57,0.0,0.0,57,0.00,,---,0.00,VWS V14.01,2013-04-28 07:17:00,
2013-04-28 03:22:00,59.2,44.0,30.06,ENE,57,0.0,0.0,57,0.00,,---,0.00,VWS V14.01,2013-04-28 07:22:00,
2013-04-28 03:27:00,59.0,43.8,30.06,ENE,57,0.0,0.0,57,0.00,,---,0.00,VWS V14.01,2013-04-28 07:27:00,
2013-04-28 03:32:00,58.8,44.1,30.06,ENE,57,0.0,0.0,58,0.00,,---,0.00,VWS V14.01,2013-04-28 07:32:00,
2013-04-28 03:37:00,58.8,44.1,30.06,ENE,57,0.0,0.0,58,0.00,,---,0.00,VWS V14.01,2013-04-28 07:37:00,
2013-04-28 03:42:00,58.8,44.1,30.06,ENE,57,0.0,0.0,58,0.00,,---,0.00,VWS V14.01,2013-04-28 07:42:00,
2013-04-28 03:47:00,58.6,43.9,30.06,ENE,57,0.0,0.0,58,0.00,,---,0.00,VWS V14.01,2013-04-28 07:47:00,
2013-04-28 03:52:00,58.6,43.9,30.06,ENE,57,0.0,0.0,58,0.00,,---,0.00,VWS V14.01,2013-04-28 07:52:00,
2013-04-28 03:57:00,58.5,43.8,30.06,ENE,57,0.0,0.0,58,0.00,,---,0.00,VWS V14.01,2013-04-28 07:57:00,
2013-04-28 04:02:00,58.5,44.2,30.03,ENE,57,0.0,0.0,59,0.00,,---,0.00,VWS V14.01,2013-04-28 08:02:00,
2013-04-28 04:07:00,58.5,44.2,30.03,ENE,57,0.0,0.0,59,0.00,,---,0.00,VWS V14.01,2013-04-28 08:07:00,
2013-04-28 04:12:00,58.3,44.0,30.03,ENE,57,0.0,0.0,59,0.00,,---,0.00,VWS V14.01,2013-04-28 08:12:00,
2013-04-28 04:17:00,58.3,44.0,30.03,ENE,57,0.0,0.0,59,0.00,,---,0.00,VWS V14.01,2013-04-28 08:17:00,
2013-04-28 04:22:00,58.3,44.5,30.03,ENE,57,0.0,0.0,60,0.00,,---,0.00,VWS V14.01,2013-04-28 08:22:00,
2013-04-28 04:27:00,58.3,44.5,30.03,ENE,57,0.0,0.0,60,0.00,,---,0.00,VWS V14.01,2013-04-28 08:27:00,
2013-04-28 04:32:00,58.3,44.5,30.03,ENE,57,0.0,0.0,60,0.00,,---,0.00,VWS V14.01,2013-04-28 08:32:00,
2013-04-28 04:37:00,58.3,44.5,30.03,ENE,57,0.0,0.0,60,0.00,,---,0.00,VWS V14.01,2013-04-28 08:37:00,
2013-04-28 04:42:00,58.5,45.1,30.03,ENE,57,0.0,0.0,61,0.00,,---,0.00,VWS V14.01,2013-04-28 08:42:00,
2013-04-28 04:47:00,58.5,45.1,30.06,ENE,57,0.0,0.0,61,0.00,,---,0.00,VWS V14.01,2013-04-28 08:47:00,
2013-04-28 04:52:00,58.5,45.1,30.06,ENE,57,0.0,0.0,61,0.00,,---,0.00,VWS V14.01,2013-04-28 08:52:00,
2013-04-28 04:57:00,58.5,45.1,30.06,ENE,57,0.0,0.0,61,0.00,,---,0.00,VWS V14.01,2013-04-28 08:57:00,
2013-04-28 05:02:00,58.6,45.2,30.06,ENE,57,0.0,0.0,61,0.00,,---,0.00,VWS V14.01,2013-04-28 09:02:00,
2013-04-28 05:07:00,58.6,45.7,30.06,ENE,57,0.0,0.0,62,0.00,,---,0.00,VWS V14.01,2013-04-28 09:07:00,
2013-04-28 05:12:00,58.6,45.7,30.06,ENE,57,0.0,0.0,62,0.00,,---,0.00,VWS V14.01,2013-04-28 09:12:00,
2013-04-28 05:17:00,58.6,45.7,30.06,ENE,57,0.0,0.0,62,0.00,,---,0.00,VWS V14.01,2013-04-28 09:17:00,
2013-04-28 05:22:00,58.6,45.7,30.06,ENE,57,0.0,0.0,62,0.00,,---,0.00,VWS V14.01,2013-04-28 09:22:00,
2013-04-28 05:27:00,58.6,45.7,30.06,ENE,57,0.0,0.0,62,0.00,,---,0.00,VWS V14.01,2013-04-28 09:27:00,
2013-04-28 05:32:00,58.6,45.7,30.06,ENE,57,0.0,0.0,62,0.00,,---,0.00,VWS V14.01,2013-04-28 09:32:00,
2013-04-28 05:37:00,58.5,45.9,30.06,ENE,57,0.0,0.0,63,0.00,,---,0.00,VWS V14.01,2013-04-28 09:37:00,
2013-04-28 05:42:00,58.5,45.9,30.06,ENE,57,0.0,0.0,63,0.00,,---,0.00,VWS V14.01,2013-04-28 09:42:00,
2013-04-28 05:47:00,58.5,45.9,30.03,ENE,57,0.0,0.0,63,0.00,,---,0.00,VWS V14.01,2013-04-28 09:47:00,
2013-04-28 05:52:00,58.5,45.9,30.03,ENE,57,0.0,0.0,63,0.00,,---,0.00,VWS V14.01,2013-04-28 09:52:00,
2013-04-28 05:57:00,58.3,45.8,30.03,ENE,57,0.0,0.0,63,0.00,,---,0.00,VWS V14.01,2013-04-28 09:57:00,
2013-04-28 06:02:00,58.3,46.2,30.06,ENE,57,0.0,0.0,64,0.00,,---,0.00,VWS V14.01,2013-04-28 10:02:00,
2013-04-28 06:07:00,58.3,46.2,30.06,ENE,57,0.0,0.0,64,0.00,,---,0.00,VWS V14.01,2013-04-28 10:07:00,
2013-04-28 06:12:00,58.1,46.0,30.06,ENE,57,0.0,0.0,64,0.00,,---,0.00,VWS V14.01,2013-04-28 10:12:00,
2013-04-28 06:17:00,58.1,46.0,30.03,ENE,57,0.0,0.0,64,0.00,,---,0.00,VWS V14.01,2013-04-28 10:17:00,
2013-04-28 06:22:00,58.1,46.0,30.03,ENE,57,0.0,0.0,64,0.00,,---,0.00,VWS V14.01,2013-04-28 10:22:00,
2013-04-28 06:26:00,58.1,46.4,30.03,ENE,57,0.0,0.0,65,0.00,,---,0.00,VWS V14.01,2013-04-28 10:26:00,
2013-04-28 06:31:00,57.9,46.2,30.06,ENE,57,0.0,0.0,65,0.00,,---,0.00,VWS V14.01,2013-04-28 10:31:00,
2013-04-28 06:36:00,57.9,46.2,30.06,ENE,57,0.0,0.0,65,0.00,,---,0.00,VWS V14.01,2013-04-28 10:36:00,
2013-04-28 06:41:00,57.9,46.2,30.06,ENE,57,0.0,0.0,65,0.00,,---,0.00,VWS V14.01,2013-04-28 10:41:00,
2013-04-28 06:46:00,57.9,46.2,30.06,ENE,57,0.0,0.0,65,0.00,,---,0.00,VWS V14.01,2013-04-28 10:46:00,
2013-04-28 06:51:00,57.9,46.6,30.06,ENE,57,0.0,0.0,66,0.00,,---,0.00,VWS V14.01,2013-04-28 10:51:00,
2013-04-28 06:56:00,57.9,46.6,30.06,ENE,57,0.0,0.0,66,0.00,,---,0.00,VWS V14.01,2013-04-28 10:56:00,
2013-04-28 07:01:00,57.9,46.6,30.06,ENE,57,0.0,0.0,66,0.00,,---,0.00,VWS V14.01,2013-04-28 11:01:00,
2013-04-28 07:06:00,57.9,46.6,30.06,ENE,57,0.0,0.0,66,0.00,,---,0.00,VWS V14.01,2013-04-28 11:06:00,
2013-04-28 07:11:00,58.3,47.4,30.06,ENE,57,0.0,0.0,67,0.00,,---,0.00,VWS V14.01,2013-04-28 11:11:00,
2013-04-28 07:16:00,58.5,47.6,30.06,ENE,57,0.0,0.0,67,0.00,,---,0.00,VWS V14.01,2013-04-28 11:16:00,
2013-04-28 07:21:00,58.6,47.7,30.06,ENE,57,0.0,0.0,67,0.00,,---,0.00,VWS V14.01,2013-04-28 11:21:00,
2013-04-28 07:26:00,58.8,47.9,30.06,ENE,57,0.0,0.0,67,0.00,,---,0.00,VWS V14.01,2013-04-28 11:26:00,
2013-04-28 07:31:00,59.2,48.6,30.06,ENE,57,0.0,0.0,68,0.00,,---,0.00,VWS V14.01,2013-04-28 11:31:00,
2013-04-28 07:36:00,59.7,49.5,30.06,ENE,57,0.0,0.0,69,0.00,,---,0.00,VWS V14.01,2013-04-28 11:36:00,
2013-04-28 07:42:00,60.4,50.6,30.06,ENE,57,0.0,0.0,70,0.00,,---,0.00,VWS V14.01,2013-04-28 11:42:00,
2013-04-28 07:47:00,61.2,51.3,30.09,ENE,57,0.0,0.0,70,0.00,,---,0.00,VWS V14.01,2013-04-28 11:47:00,
2013-04-28 07:52:00,61.7,51.8,30.09,ENE,57,0.0,0.0,70,0.00,,---,0.00,VWS V14.01,2013-04-28 11:52:00,
2013-04-28 07:57:00,62.1,52.2,30.09,ENE,57,0.0,0.0,70,0.00,,---,0.00,VWS V14.01,2013-04-28 11:57:00,
2013-04-28 08:02:00,62.6,52.7,30.09,ENE,57,0.0,0.0,70,0.00,,---,0.00,VWS V14.01,2013-04-28 12:02:00,
2013-04-28 08:07:00,63.5,54.3,30.09,ENE,57,0.0,0.0,72,0.00,,---,0.00,VWS V14.01,2013-04-28 12:07:00,
2013-04-28 08:12:00,64.8,56.7,30.09,ENE,57,0.0,0.0,75,0.00,,---,0.00,VWS V14.01,2013-04-28 12:12:00,
2013-04-28 08:17:00,65.7,57.2,30.09,ENE,57,0.0,0.0,74,0.00,,---,0.00,VWS V14.01,2013-04-28 12:17:00,
2013-04-28 08:22:00,66.4,57.8,30.09,West,260,0.0,0.0,74,0.00,,---,0.00,VWS V14.01,2013-04-28 12:22:00,
2013-04-28 08:27:00,67.1,59.3,30.09,SSW,198,0.0,0.0,76,0.00,,---,0.00,VWS V14.01,2013-04-28 12:27:00,
2013-04-28 08:31:00,68.0,60.9,30.09,South,173,2.7,2.7,78,0.00,,---,0.00,VWS V14.01,2013-04-28 12:31:00,
2013-04-28 08:36:00,68.7,61.2,30.09,SSE,150,3.6,3.6,77,0.00,,---,0.00,VWS V14.01,2013-04-28 12:36:00,
2013-04-28 08:41:00,69.3,61.8,30.09,SSE,155,0.0,0.0,77,0.00,,---,0.00,VWS V14.01,2013-04-28 12:41:00,
2013-04-28 08:46:00,69.6,61.7,30.09,South,175,0.0,0.0,76,0.00,,---,0.00,VWS V14.01,2013-04-28 12:46:00,
2013-04-28 08:51:00,70.2,62.2,30.09,East,82,0.0,3.6,76,0.00,,---,0.00,VWS V14.01,2013-04-28 12:51:00,
2013-04-28 08:56:00,70.7,62.4,30.09,NE,56,0.0,0.0,75,0.00,,---,0.00,VWS V14.01,2013-04-28 12:56:00,
2013-04-28 09:01:00,71.2,62.5,30.09,SE,145,2.7,2.7,74,0.00,,---,0.00,VWS V14.01,2013-04-28 13:01:00,
2013-04-28 09:06:00,71.6,61.7,30.09,East,82,3.6,3.6,71,0.00,,---,0.00,VWS V14.01,2013-04-28 13:06:00,
2013-04-28 09:11:00,72.0,61.2,30.09,East,80,2.2,4.9,69,0.00,,---,0.00,VWS V14.01,2013-04-28 13:11:00,
2013-04-28 09:16:00,72.3,61.2,30.09,SE,138,0.0,0.0,68,0.00,,---,0.00,VWS V14.01,2013-04-28 13:16:00,
2013-04-28 09:21:00,72.7,61.5,30.09,ESE,108,3.6,4.0,68,0.00,,---,0.00,VWS V14.01,2013-04-28 13:21:00,
2013-04-28 09:26:00,73.0,61.5,30.09,ENE,57,0.0,0.0,67,0.00,,---,0.00,VWS V14.01,2013-04-28 13:26:00,
2013-04-28 09:31:00,73.2,61.2,30.09,NE,36,0.0,0.0,66,0.00,,---,0.00,VWS V14.01,2013-04-28 13:31:00,
2013-04-28 09:36:00,73.4,60.5,30.09,South,191,4.9,4.9,64,0.00,,---,0.00,VWS V14.01,2013-04-28 13:36:00,
2013-04-28 09:41:00,73.6,60.2,30.09,SSE,167,2.7,3.6,63,0.00,,---,0.00,VWS V14.01,2013-04-28 13:41:00,
2013-04-28 09:46:00,73.8,59.9,30.12,NNE,23,2.7,2.7,62,0.00,,---,0.00,VWS V14.01,2013-04-28 13:46:00,
2013-04-28 09:51:00,74.3,60.5,30.12,ENE,71,3.1,7.6,62,0.00,,---,0.00,VWS V14.01,2013-04-28 13:51:00,
2013-04-28 09:56:00,74.7,57.9,30.12,ENE,78,5.4,6.7,56,0.00,,---,0.00,VWS V14.01,2013-04-28 13:56:00,
2013-04-28 10:01:00,75.0,58.3,30.09,SSE,168,2.2,3.1,56,0.00,,---,0.00,VWS V14.01,2013-04-28 14:01:00,
2013-04-28 10:06:00,75.4,58.1,30.09,ENE,72,0.0,6.3,55,0.00,,---,0.00,VWS V14.01,2013-04-28 14:06:00,
2013-04-28 10:11:00,75.6,57.8,30.09,SSW,202,5.8,5.8,54,0.00,,---,0.00,VWS V14.01,2013-04-28 14:11:00,
2013-04-28 10:16:00,75.4,56.5,30.09,NE,51,2.7,4.0,52,0.00,,---,0.00,VWS V14.01,2013-04-28 14:16:00,
2013-04-28 10:21:00,76.1,58.3,30.09,SSE,147,0.0,0.0,54,0.00,,---,0.00,VWS V14.01,2013-04-28 14:21:00,
2013-04-28 10:26:00,76.5,58.1,30.09,East,92,3.6,7.2,53,0.00,,---,0.00,VWS V14.01,2013-04-28 14:26:00,
2013-04-28 10:31:00,77.2,58.2,30.12,SSW,198,0.0,4.5,52,0.00,,---,0.00,VWS V14.01,2013-04-28 14:31:00,
2013-04-28 10:36:00,77.7,57.6,30.12,NE,55,3.1,3.6,50,0.00,,---,0.00,VWS V14.01,2013-04-28 14:36:00,
2013-04-28 10:41:00,77.9,57.8,30.12,SE,140,2.7,4.0,50,0.00,,---,0.00,VWS V14.01,2013-04-28 14:41:00,
2013-04-28 10:46:00,77.5,57.5,30.09,SE,140,3.6,5.8,50,0.00,,---,0.00,VWS V14.01,2013-04-28 14:46:00,
2013-04-28 10:51:00,77.2,57.7,30.09,SSE,156,0.0,3.1,51,0.00,,---,0.00,VWS V14.01,2013-04-28 14:51:00,
2013-04-28 10:56:00,76.8,57.3,30.09,SSW,193,3.6,4.9,51,0.00,,---,0.00,VWS V14.01,2013-04-28 14:56:00,
2013-04-28 11:01:00,76.3,56.8,30.12,SSE,154,6.3,6.3,51,0.00,,---,0.00,VWS V14.01,2013-04-28 15:01:00,
2013-04-28 11:06:00,75.7,56.3,30.12,SSE,161,2.2,3.6,51,0.00,,---,0.00,VWS V14.01,2013-04-28 15:06:00,
2013-04-28 11:11:00,74.8,56.0,30.12,South,179,0.0,0.0,52,0.00,,---,0.00,VWS V14.01,2013-04-28 15:11:00,
2013-04-28 11:16:00,73.9,56.3,30.09,NNE,18,3.1,3.6,54,0.00,,---,0.00,VWS V14.01,2013-04-28 15:16:00,
2013-04-28 11:21:00,73.4,55.8,30.09,NNE,25,0.0,0.0,54,0.00,,---,0.00,VWS V14.01,2013-04-28 15:21:00,
2013-04-28 11:26:00,73.4,57.7,30.09,ENE,63,0.0,0.0,58,0.00,,---,0.00,VWS V14.01,2013-04-28 15:26:00,
2013-04-28 11:31:00,73.4,57.3,30.09,NE,49,0.0,0.0,57,0.00,,---,0.00,VWS V14.01,2013-04-28 15:31:00,
2013-04-28 11:36:00,73.6,58.4,30.09,ENE,57,0.0,3.1,59,0.00,,---,0.00,VWS V14.01,2013-04-28 15:36:00,
2013-04-28 11:41:00,73.8,58.1,30.09,ENE,72,0.0,0.0,58,0.00,,---,0.00,VWS V14.01,2013-04-28 15:41:00,
2013-04-28 11:47:00,74.5,59.2,30.09,ENE,74,0.0,3.1,59,0.00,,---,0.00,VWS V14.01,2013-04-28 15:47:00,
2013-04-28 11:51:00,75.6,59.3,30.09,NNW,330,0.0,0.0,57,0.00,,---,0.00,VWS V14.01,2013-04-28 15:51:00,
2013-04-28 11:57:00,76.5,59.1,30.09,East,95,3.1,4.9,55,0.00,,---,0.00,VWS V14.01,2013-04-28 15:57:00,
2013-04-28 12:01:00,77.2,59.3,30.09,South,173,2.2,4.0,54,0.00,,---,0.00,VWS V14.01,2013-04-28 16:01:00,
2013-04-28 12:06:00,77.2,57.7,30.09,East,98,2.7,3.6,51,0.00,,---,0.00,VWS V14.01,2013-04-28 16:06:00,
2013-04-28 12:12:00,77.4,57.8,30.09,SE,138,4.0,4.0,51,0.00,,---,0.00,VWS V14.01,2013-04-28 16:12:00,
2013-04-28 12:16:00,77.5,57.5,30.09,SE,139,3.6,4.0,50,0.00,,---,0.00,VWS V14.01,2013-04-28 16:16:00,
2013-04-28 12:22:00,78.1,56.8,30.09,East,101,5.4,5.4,48,0.00,,---,0.00,VWS V14.01,2013-04-28 16:22:00,
2013-04-28 12:26:00,79.0,57.0,30.09,SE,124,8.3,8.3,47,0.00,,---,0.00,VWS V14.01,2013-04-28 16:26:00,
2013-04-28 12:31:00,79.5,56.3,30.06,ENE,60,5.8,6.7,45,0.00,,---,0.00,VWS V14.01,2013-04-28 16:31:00,
2013-04-28 12:36:00,79.3,54.9,30.06,ESE,103,5.8,8.7,43,0.00,,---,0.00,VWS V14.01,2013-04-28 16:36:00,
2013-04-28 12:41:00,79.3,54.3,30.06,NNE,21,4.0,5.8,42,0.00,,---,0.00,VWS V14.01,2013-04-28 16:41:00,
2013-04-28 12:46:00,79.7,54.6,30.06,ENE,76,3.1,4.9,42,0.00,,---,0.00,VWS V14.01,2013-04-28 16:46:00,
2013-04-28 12:52:00,79.9,54.8,30.06,ENE,61,2.7,3.1,42,0.00,,---,0.00,VWS V14.01,2013-04-28 16:52:00,
2013-04-28 12:57:00,80.2,55.1,30.06,ENE,59,2.7,5.8,42,0.00,,---,0.00,VWS V14.01,2013-04-28 16:57:00,
2013-04-28 13:02:00,80.6,54.8,30.06,NE,46,3.6,3.6,41,0.00,,---,0.00,VWS V14.01,2013-04-28 17:02:00,
2013-04-28 13:07:00,81.3,55.4,30.06,ENE,60,6.3,6.3,41,0.00,,---,0.00,VWS V14.01,2013-04-28 17:07:00,
2013-04-28 13:12:00,82.2,56.2,30.06,ENE,63,5.4,5.4,41,0.00,,---,0.00,VWS V14.01,2013-04-28 17:12:00,
2013-04-28 13:17:00,82.4,55.7,30.06,North,1,0.0,0.0,40,0.00,,---,0.00,VWS V14.01,2013-04-28 17:17:00,
2013-04-28 13:22:00,82.2,55.5,30.06,East,95,3.1,3.1,40,0.00,,---,0.00,VWS V14.01,2013-04-28 17:22:00,
2013-04-28 13:27:00,81.7,55.0,30.06,SSE,155,3.6,3.6,40,0.00,,---,0.00,VWS V14.01,2013-04-28 17:27:00,
2013-04-28 13:31:00,81.1,54.5,30.03,ENE,67,4.9,5.8,40,0.00,,---,0.00,VWS V14.01,2013-04-28 17:31:00,
2013-04-28 13:36:00,81.5,54.9,30.03,SSE,165,5.4,5.8,40,0.00,,---,0.00,VWS V14.01,2013-04-28 17:36:00,
2013-04-28 13:41:00,82.4,55.7,30.03,NE,38,0.0,3.1,40,0.00,,---,0.00,VWS V14.01,2013-04-28 17:41:00,
2013-04-28 13:46:00,82.8,55.3,30.03,SE,136,3.6,5.8,39,0.00,,---,0.00,VWS V14.01,2013-04-28 17:46:00,
2013-04-28 13:51:00,83.5,55.9,30.03,East,85,4.9,4.9,39,0.00,,---,0.00,VWS V14.01,2013-04-28 17:51:00,
2013-04-28 13:56:00,83.7,56.1,30.03,ENE,73,8.1,11.0,39,0.00,,---,0.00,VWS V14.01,2013-04-28 17:56:00,
2013-04-28 14:01:00,83.5,55.9,30.03,ESE,104,2.7,5.8,39,0.00,,---,0.00,VWS V14.01,2013-04-28 18:01:00,
2013-04-28 14:06:00,83.7,56.1,30.03,ENE,64,4.0,4.0,39,0.00,,---,0.00,VWS V14.01,2013-04-28 18:06:00,
2013-04-28 14:11:00,83.8,56.3,30.03,SSE,147,3.6,3.6,39,0.00,,---,0.00,VWS V14.01,2013-04-28 18:11:00,
2013-04-28 14:16:00,84.0,56.4,30.03,East,99,4.9,9.2,39,0.00,,---,0.00,VWS V14.01,2013-04-28 18:16:00,
2013-04-28 14:21:00,84.0,54.2,30.03,East,82,4.0,10.1,36,0.00,,---,0.00,VWS V14.01,2013-04-28 18:21:00,
2013-04-28 14:26:00,84.0,54.2,30.03,ENE,57,3.1,5.4,36,0.00,,---,0.00,VWS V14.01,2013-04-28 18:26:00,
2013-04-28 14:31:00,84.4,54.5,30.03,ESE,119,6.3,6.3,36,0.00,,---,0.00,VWS V14.01,2013-04-28 18:31:00,
2013-04-28 14:36:00,83.8,54.1,30.03,ENE,67,2.7,4.5,36,0.00,,---,0.00,VWS V14.01,2013-04-28 18:36:00,
2013-04-28 14:41:00,83.1,53.4,30.03,ESE,121,3.6,5.8,36,0.00,,---,0.00,VWS V14.01,2013-04-28 18:41:00,
2013-04-28 14:46:00,83.5,53.8,30.03,SE,143,2.2,3.1,36,0.00,,---,0.00,VWS V14.01,2013-04-28 18:46:00,
2013-04-28 14:51:00,83.3,53.6,30.03,South,176,0.0,3.1,36,0.00,,---,0.00,VWS V14.01,2013-04-28 18:51:00,
2013-04-28 14:56:00,82.9,53.3,30.03,North,353,2.2,5.4,36,0.00,,---,0.00,VWS V14.01,2013-04-28 18:56:00,
2013-04-28 15:01:00,82.8,53.1,30.00,ENE,70,4.9,4.9,36,0.00,,---,0.00,VWS V14.01,2013-04-28 19:01:00,
2013-04-28 15:06:00,82.2,53.4,30.00,SE,129,0.0,3.6,37,0.00,,---,0.00,VWS V14.01,2013-04-28 19:06:00,
2013-04-28 15:11:00,82.0,53.2,30.00,East,90,5.4,5.8,37,0.00,,---,0.00,VWS V14.01,2013-04-28 19:11:00,
2013-04-28 15:16:00,82.9,53.3,30.00,North,4,2.2,5.4,36,0.00,,---,0.00,VWS V14.01,2013-04-28 19:16:00,
2013-04-28 15:21:00,83.5,53.8,30.00,East,82,5.4,5.4,36,0.00,,---,0.00,VWS V14.01,2013-04-28 19:21:00,
2013-04-28 15:26:00,83.3,53.6,30.00,East,96,0.0,2.2,36,0.00,,---,0.00,VWS V14.01,2013-04-28 19:26:00,
2013-04-28 15:31:00,82.8,53.1,30.00,ENE,65,5.4,5.4,36,0.00,,---,0.00,VWS V14.01,2013-04-28 19:31:00,
2013-04-28 15:37:00,82.6,53.0,30.00,SSE,148,4.0,5.4,36,0.00,,---,0.00,VWS V14.01,2013-04-28 19:37:00,
2013-04-28 15:42:00,82.2,53.4,30.00,South,175,3.1,3.1,37,0.00,,---,0.00,VWS V14.01,2013-04-28 19:42:00,
2013-04-28 15:47:00,82.0,53.2,29.97,East,82,6.3,6.3,37,0.00,,---,0.00,VWS V14.01,2013-04-28 19:47:00,
2013-04-28 15:52:00,82.4,52.8,29.97,SE,136,3.1,3.1,36,0.00,,---,0.00,VWS V14.01,2013-04-28 19:52:00,
2013-04-28 15:57:00,83.3,53.6,29.97,ESE,123,3.6,5.8,36,0.00,,---,0.00,VWS V14.01,2013-04-28 19:57:00,
2013-04-28 16:02:00,84.2,54.4,30.00,ENE,77,4.0,7.6,36,0.00,,---,0.00,VWS V14.01,2013-04-28 20:02:00,
2013-04-28 16:07:00,84.6,54.7,30.00,ENE,63,4.0,8.7,36,0.00,,---,0.00,VWS V14.01,2013-04-28 20:07:00,
2013-04-28 16:12:00,83.8,54.1,30.00,North,357,0.0,0.0,36,0.00,,---,0.00,VWS V14.01,2013-04-28 20:12:00,
2013-04-28 16:17:00,83.7,53.9,30.00,ESE,115,4.0,4.0,36,0.00,,---,0.00,VWS V14.01,2013-04-28 20:17:00,
2013-04-28 16:22:00,83.5,53.8,30.00,South,169,2.7,2.7,36,0.00,,---,0.00,VWS V14.01,2013-04-28 20:22:00,
2013-04-28 16:27:00,83.3,53.6,30.00,SSE,147,9.2,9.2,36,0.00,,---,0.00,VWS V14.01,2013-04-28 20:27:00,
2013-04-28 16:32:00,83.3,53.6,29.97,ENE,69,3.6,6.3,36,0.00,,---,0.00,VWS V14.01,2013-04-28 20:32:00,
2013-04-28 16:37:00,83.1,53.4,29.97,NE,41,4.0,4.0,36,0.00,,---,0.00,VWS V14.01,2013-04-28 20:37:00,
2013-04-28 16:42:00,82.6,53.0,29.97,West,259,4.5,7.6,36,0.00,,---,0.00,VWS V14.01,2013-04-28 20:42:00,
2013-04-28 16:47:00,82.8,53.1,29.97,ESE,103,2.7,11.0,36,0.00,,---,0.00,VWS V14.01,2013-04-28 20:47:00,
2013-04-28 16:52:00,82.6,53.0,29.97,SSW,212,2.2,4.9,36,0.00,,---,0.00,VWS V14.01,2013-04-28 20:52:00,
2013-04-28 16:57:00,82.4,52.8,29.97,East,98,3.1,3.1,36,0.00,,---,0.00,VWS V14.01,2013-04-28 20:57:00,
2013-04-28 17:02:00,82.4,52.8,29.97,East,82,2.7,2.7,36,0.00,,---,0.00,VWS V14.01,2013-04-28 21:02:00,
2013-04-28 17:07:00,82.2,53.4,29.97,SSW,193,2.7,4.0,37,0.00,,---,0.00,VWS V14.01,2013-04-28 21:07:00,
2013-04-28 17:12:00,81.9,53.1,29.97,East,81,2.2,2.7,37,0.00,,---,0.00,VWS V14.01,2013-04-28 21:12:00,
2013-04-28 17:17:00,81.5,52.7,29.97,North,11,3.6,4.9,37,0.00,,---,0.00,VWS V14.01,2013-04-28 21:17:00,
2013-04-28 17:22:00,81.0,52.3,29.97,ESE,106,4.0,4.0,37,0.00,,---,0.00,VWS V14.01,2013-04-28 21:22:00,
2013-04-28 17:27:00,80.6,52.0,29.97,South,176,0.0,2.7,37,0.00,,---,0.00,VWS V14.01,2013-04-28 21:27:00,
2013-04-28 17:32:00,80.4,51.8,29.97,SSW,205,2.2,4.9,37,0.00,,---,0.00,VWS V14.01,2013-04-28 21:32:00,
2013-04-28 17:37:00,80.6,52.0,29.97,SE,138,3.1,5.4,37,0.00,,---,0.00,VWS V14.01,2013-04-28 21:37:00,
2013-04-28 17:42:00,81.0,52.3,29.97,ENE,59,4.0,5.4,37,0.00,,---,0.00,VWS V14.01,2013-04-28 21:42:00,
2013-04-28 17:47:00,81.0,52.3,29.97,East,82,2.7,2.7,37,0.00,,---,0.00,VWS V14.01,2013-04-28 21:47:00,
2013-04-28 17:52:00,80.8,52.1,29.97,WNW,282,0.0,2.2,37,0.00,,---,0.00,VWS V14.01,2013-04-28 21:52:00,
2013-04-28 17:57:00,80.8,52.1,29.97,NE,52,0.0,2.7,37,0.00,,---,0.00,VWS V14.01,2013-04-28 21:57:00,
2013-04-28 18:02:00,80.8,52.1,29.97,NE,41,3.6,4.9,37,0.00,,---,0.00,VWS V14.01,2013-04-28 22:02:00,
2013-04-28 18:07:00,80.4,51.8,29.97,ENE,70,0.0,3.6,37,0.00,,---,0.00,VWS V14.01,2013-04-28 22:07:00,
2013-04-28 18:12:00,80.2,51.6,29.97,NNE,21,2.7,2.7,37,0.00,,---,0.00,VWS V14.01,2013-04-28 22:12:00,
2013-04-28 18:17:00,80.1,51.5,29.97,SW,234,2.2,5.4,37,0.00,,---,0.00,VWS V14.01,2013-04-28 22:17:00,
2013-04-28 18:22:00,79.9,51.3,29.97,NE,51,3.1,3.6,37,0.00,,---,0.00,VWS V14.01,2013-04-28 22:22:00,
2013-04-28 18:27:00,79.5,51.0,29.97,NE,45,0.0,0.0,37,0.00,,---,0.00,VWS V14.01,2013-04-28 22:27:00,
2013-04-28 18:32:00,79.2,50.7,29.97,SSW,200,2.2,7.2,37,0.00,,---,0.00,VWS V14.01,2013-04-28 22:32:00,
2013-04-28 18:37:00,79.0,50.5,29.97,SSE,157,0.0,3.1,37,0.00,,---,0.00,VWS V14.01,2013-04-28 22:37:00,
2013-04-28 18:42:00,79.0,50.5,29.97,NE,52,2.7,3.6,37,0.00,,---,0.00,VWS V14.01,2013-04-28 22:42:00,
2013-04-28 18:47:00,79.0,50.5,29.97,NE,52,3.6,5.8,37,0.00,,---,0.00,VWS V14.01,2013-04-28 22:47:00,
2013-04-28 18:52:00,79.0,50.5,29.97,SE,145,2.7,2.7,37,0.00,,---,0.00,VWS V14.01,2013-04-28 22:52:00,
2013-04-28 18:57:00,79.0,50.5,29.97,East,92,3.1,5.8,37,0.00,,---,0.00,VWS V14.01,2013-04-28 22:57:00,
2013-04-28 19:02:00,78.8,50.4,29.97,ENE,58,2.2,5.4,37,0.00,,---,0.00,VWS V14.01,2013-04-28 23:02:00,
2013-04-28 19:07:00,78.8,50.4,29.97,SSE,162,0.0,0.0,37,0.00,,---,0.00,VWS V14.01,2013-04-28 23:07:00,
2013-04-28 19:12:00,78.8,50.4,29.97,ENE,71,4.9,5.8,37,0.00,,---,0.00,VWS V14.01,2013-04-28 23:12:00,
2013-04-28 19:17:00,78.6,50.9,29.97,SSE,160,0.0,3.1,38,0.00,,---,0.00,VWS V14.01,2013-04-28 23:17:00,
2013-04-28 19:22:00,78.4,50.8,29.97,SE,145,0.0,3.6,38,0.00,,---,0.00,VWS V14.01,2013-04-28 23:22:00,
2013-04-28 19:27:00,78.1,50.4,29.97,North,3,2.2,3.6,38,0.00,,---,0.00,VWS V14.01,2013-04-28 23:27:00,
2013-04-28 19:32:00,77.7,50.1,29.94,SE,137,2.7,2.7,38,0.00,,---,0.00,VWS V14.01,2013-04-28 23:32:00,
2013-04-28 19:37:00,77.4,49.8,29.94,ENE,78,2.2,3.6,38,0.00,,---,0.00,VWS V14.01,2013-04-28 23:37:00,
2013-04-28 19:42:00,77.0,49.5,29.94,North,9,0.0,2.2,38,0.00,,---,0.00,VWS V14.01,2013-04-28 23:42:00,
2013-04-28 19:47:00,76.8,49.3,29.97,ENE,73,4.0,4.0,38,0.00,,---,0.00,VWS V14.01,2013-04-28 23:47:00,
2013-04-28 19:52:00,76.5,49.0,29.97,NNW,341,0.0,2.7,38,0.00,,---,0.00,VWS V14.01,2013-04-28 23:52:00,
2013-04-28 19:57:00,76.1,48.7,29.97,ENE,76,0.0,0.0,38,0.00,,---,0.00,VWS V14.01,2013-04-28 23:57:00,
2013-04-28 20:02:00,75.7,48.4,29.97,ESE,111,3.1,3.6,38,0.00,,---,0.00,VWS V14.01,2013-04-29 00:02:00,
2013-04-28 20:07:00,75.4,48.0,29.97,South,187,0.0,3.6,38,0.00,,---,0.00,VWS V14.01,2013-04-29 00:07:00,
2013-04-28 20:12:00,75.2,47.9,29.97,SSW,200,0.0,0.0,38,0.00,,---,0.00,VWS V14.01,2013-04-29 00:12:00,
2013-04-28 20:17:00,74.8,49.6,29.97,ENE,77,0.0,0.0,41,0.00,,---,0.00,VWS V14.01,2013-04-29 00:17:00,
2013-04-28 20:22:00,74.5,47.2,29.97,ENE,63,0.0,0.0,38,0.00,,---,0.00,VWS V14.01,2013-04-29 00:22:00,
2013-04-28 20:27:00,74.1,46.9,29.97,ENE,62,0.0,0.0,38,0.00,,---,0.00,VWS V14.01,2013-04-29 00:27:00,
2013-04-28 20:32:00,73.8,48.6,29.97,ENE,69,0.0,2.7,41,0.00,,---,0.00,VWS V14.01,2013-04-29 00:32:00,
2013-04-28 20:37:00,73.6,48.5,29.97,SSE,147,0.0,2.2,41,0.00,,---,0.00,VWS V14.01,2013-04-29 00:37:00,
2013-04-28 20:42:00,73.2,48.1,29.97,NE,49,0.0,0.0,41,0.00,,---,0.00,VWS V14.01,2013-04-29 00:42:00,
2013-04-28 20:47:00,73.0,48.0,29.97,ENE,61,0.0,0.0,41,0.00,,---,0.00,VWS V14.01,2013-04-29 00:47:00,
2013-04-28 20:52:00,72.9,47.8,29.97,SSW,192,0.0,0.0,41,0.00,,---,0.00,VWS V14.01,2013-04-29 00:52:00,
2013-04-28 20:57:00,72.7,47.7,29.97,SSE,158,0.0,0.0,41,0.00,,---,0.00,VWS V14.01,2013-04-29 00:57:00,
2013-04-28 21:02:00,72.5,47.5,29.97,South,173,0.0,0.0,41,0.00,,---,0.00,VWS V14.01,2013-04-29 01:02:00,
2013-04-28 21:07:00,72.3,47.3,29.97,NE,56,0.0,0.0,41,0.00,,---,0.00,VWS V14.01,2013-04-29 01:07:00,
2013-04-28 21:12:00,72.1,47.2,29.97,East,80,2.7,2.7,41,0.00,,---,0.00,VWS V14.01,2013-04-29 01:12:00,
2013-04-28 21:17:00,72.0,47.0,29.97,SE,131,0.0,0.0,41,0.00,,---,0.00,VWS V14.01,2013-04-29 01:17:00,
2013-04-28 21:22:00,71.8,46.8,29.97,ENE,78,0.0,0.0,41,0.00,,---,0.00,VWS V14.01,2013-04-29 01:22:00,
2013-04-28 21:27:00,71.4,47.2,29.97,ESE,118,0.0,0.0,42,0.00,,---,0.00,VWS V14.01,2013-04-29 01:27:00,
2013-04-28 21:32:00,71.2,47.0,29.97,SE,137,0.0,0.0,42,0.00,,---,0.00,VWS V14.01,2013-04-29 01:32:00,
2013-04-28 21:37:00,71.2,47.0,29.97,NNE,32,0.0,2.7,42,0.00,,---,0.00,VWS V14.01,2013-04-29 01:37:00,
2013-04-28 21:42:00,71.1,46.8,29.97,North,353,0.0,0.0,42,0.00,,---,0.00,VWS V14.01,2013-04-29 01:42:00,
2013-04-28 21:47:00,70.9,46.7,29.97,East,79,2.7,3.6,42,0.00,,---,0.00,VWS V14.01,2013-04-29 01:47:00,
2013-04-28 21:52:00,70.9,46.7,29.97,ENE,73,0.0,0.0,42,0.00,,---,0.00,VWS V14.01,2013-04-29 01:52:00,
2013-04-28 21:57:00,70.9,46.7,29.97,ESE,116,0.0,0.0,42,0.00,,---,0.00,VWS V14.01,2013-04-29 01:57:00,
2013-04-28 22:02:00,70.7,46.5,29.97,North,0,0.0,0.0,42,0.00,,---,0.00,VWS V14.01,2013-04-29 02:02:00,
2013-04-28 22:07:00,70.7,47.1,29.97,SE,139,0.0,0.0,43,0.00,,---,0.00,VWS V14.01,2013-04-29 02:07:00,
2013-04-28 22:12:00,70.5,47.0,29.97,SE,130,2.2,3.1,43,0.00,,---,0.00,VWS V14.01,2013-04-29 02:12:00,
2013-04-28 22:17:00,70.5,47.0,29.97,NE,47,0.0,2.7,43,0.00,,---,0.00,VWS V14.01,2013-04-29 02:17:00,
2013-04-28 22:22:00,70.3,46.8,29.97,NNE,22,3.6,4.0,43,0.00,,---,0.00,VWS V14.01,2013-04-29 02:22:00,
2013-04-28 22:27:00,70.2,46.6,29.97,NE,41,0.0,2.2,43,0.00,,---,0.00,VWS V14.01,2013-04-29 02:27:00,
2013-04-28 22:32:00,70.2,46.6,30.00,East,92,2.2,2.2,43,0.00,,---,0.00,VWS V14.01,2013-04-29 02:32:00,
2013-04-28 22:37:00,70.0,46.5,30.00,South,172,0.0,0.0,43,0.00,,---,0.00,VWS V14.01,2013-04-29 02:37:00,
2013-04-28 22:42:00,69.8,46.3,30.00,NE,44,0.0,0.0,43,0.00,,---,0.00,VWS V14.01,2013-04-29 02:42:00,
2013-04-28 22:47:00,69.6,46.8,30.00,SSE,163,0.0,0.0,44,0.00,,---,0.00,VWS V14.01,2013-04-29 02:47:00,
2013-04-28 22:52:00,69.4,46.6,30.00,ESE,113,0.0,0.0,44,0.00,,---,0.00,VWS V14.01,2013-04-29 02:52:00,
2013-04-28 22:57:00,69.3,46.4,30.00,SE,131,0.0,0.0,44,0.00,,---,0.00,VWS V14.01,2013-04-29 02:57:00,
2013-04-28 23:02:00,69.1,46.3,30.00,SE,131,0.0,0.0,44,0.00,,---,0.00,VWS V14.01,2013-04-29 03:02:00,
2013-04-28 23:07:00,68.7,46.0,30.00,SE,131,0.0,0.0,44,0.00,,---,0.00,VWS V14.01,2013-04-29 03:07:00,
2013-04-28 23:12:00,68.4,45.6,30.00,SE,131,0.0,0.0,44,0.00,,---,0.00,VWS V14.01,2013-04-29 03:12:00,
2013-04-28 23:17:00,68.0,45.3,30.00,SE,131,0.0,0.0,44,0.00,,---,0.00,VWS V14.01,2013-04-29 03:17:00,
2013-04-28 23:22:00,67.6,45.0,30.00,SE,131,0.0,0.0,44,0.00,,---,0.00,VWS V14.01,2013-04-29 03:22:00,
2013-04-28 23:27:00,67.3,44.7,30.00,SE,131,0.0,0.0,44,0.00,,---,0.00,VWS V14.01,2013-04-29 03:27:00,
2013-04-28 23:32:00,66.9,44.3,30.00,SE,131,0.0,0.0,44,0.00,,---,0.00,VWS V14.01,2013-04-29 03:32:00,
2013-04-28 23:37:00,66.4,43.8,30.00,SE,131,0.0,0.0,44,0.00,,---,0.00,VWS V14.01,2013-04-29 03:37:00,
2013-04-28 23:42:00,66.0,44.1,30.00,SE,131,0.0,0.0,45,0.00,,---,0.00,VWS V14.01,2013-04-29 03:42:00,
2013-04-28 23:47:00,65.8,43.9,30.00,SE,131,0.0,0.0,45,0.00,,---,0.00,VWS V14.01,2013-04-29 03:47:00,
2013-04-28 23:52:00,65.5,44.2,30.00,SE,131,0.0,0.0,46,0.00,,---,0.00,VWS V14.01,2013-04-29 03:52:00,
2013-04-28 23:57:00,65.1,43.8,30.00,SE,131,0.0,0.0,46,0.00,,---,0.00,VWS V14.01,2013-04-29 03:57:00,